Participated 2 times
Between 2020 and 2022
Guy Niv, Israel
Tour de France 2026 starts from Barcelona, Spain in

Stats and Facts from
Tour de France.

2026   2025   2024   2023  2022  2021  2020  2019   2018  2017   2016   2015  2014  2013   2012   2011  2010   2009   2008   2007   2006   2005   2004   2003   2002   2001   2000   1999   1998   1997  1996   1995   1994   1993   1992  1991   1990   1989   1988   1987   1986   1985   1984   1983  1982  1981   1980   1979  1978  1977   1976  1975  1974  1973   1972   1971   1970  1969   1968   1967   1966   1965  1964  1963   1962   1961   1960   1959   1958   1957  1956   1955   1954   1953   1952  1951  1950  1949   1948  1947  1939   1938   1937   1936   1935   1934   1933  1932   1931   1930  1929   1928   1927   1926  1925  1924  1923   1922   1921   1920   1919  1914   1913   1912   1911   1910  1909   1908   1907   1906  1905  1904   1903 

Tourstats
Sitemap

After stage 21 - 2025:
 16451 starters.
  5463 different riders.
  689 teams.
  2398 stages.
  470 restdays.
  466506.50 km.
  5925 abandoned riders.

Click map for 2016 route.
Facts from Tour de France 2016
  |   Stages.  |   Stage winners.  |   Days in jerseys.  |   Teams.  |   All riders.  |   All riders by age.  |   All riders from.  |  

  |   Rookies.  |   Withdrawls.  |   Average speed.  |   GC.  |   Polka  |   Green  |   White  |   Summits. (In tour)  |   Miscellaneous.  |  

Stage 19 on July 22nd. 2016
Pick a stage:  1  2  3  4  5  6  7  8  9  10  11  12  13  14  15  16  17  18  19  20  21  

After stage 19:    Chris Froome    Rafał Majka    Peter Sagan    Adam Yates  
  AlbertvilleSaint-Gervais-les-Bains | Dist: 146.00km. | Winner: Romain Bardet

Podium
1  Col de la Forclaz de Montmin Thomas De Gendtafter42.50 km.

2  Col de la Forclaz de Queige Thomas De Gendtafter73.50 km.

HC  Montée de Bisanne Rafał Majkaafter96.50 km.

1  Cret Bettex - Le Fayet Romain Bardetafter146.00 km.


Average speed for all riders in stage:  31,789 km./hr.

1
 Romain Bardet  AG2R La Mondiale04h 14' 08"=34,470  km/h

2
 Joaquin Rodriguez  Katusha04h 14' 31"+  00:00:23 =34,418  km/h

3
 Alejandro Valverde  Movistar04h 14' 31"+  00:00:23 =34,418  km/h

4  Louis Meintjes  Lampre-Merida04h 14' 31"+  00:00:23 =34,418  km/h

5  Nairo Quintana  Movistar04h 14' 34"+  00:00:26 =34,411  km/h

6  Fabio Aru  Astana Pro Team04h 14' 36"+  00:00:28 =34,407  km/h

7  Dan Martin  Etixx-Quick Step04h 14' 36"+  00:00:28 =34,407  km/h

8  Wout Poels  Sky Procycling04h 14' 44"+  00:00:36 =34,389  km/h

9  Chris Froome  Sky Procycling04h 14' 44"+  00:00:36 =34,389  km/h

10  Richie Porte  BMC04h 15' 01"+  00:00:53 =34,351  km/h

11  Ion Izagirre  Movistar04h 15' 01"+  00:00:53 =34,351  km/h

12  Mikel Landa  Sky Procycling04h 15' 01"+  00:00:53 =34,351  km/h

13  Adam Yates  ORICA BikeExchange04h 15' 04"+  00:00:56 =34,344  km/h

14  Warren Barguil  Giant-Alpecin04h 15' 25"+  00:01:17 =34,297  km/h

15  Rui Costa  Lampre-Merida04h 16' 00"+  00:01:52 =34,219  km/h

16  Sergio Henao  Sky Procycling04h 16' 05"+  00:01:57 =34,208  km/h

17  Roman Kreuziger  Tinkoff04h 16' 06"+  00:01:58 =34,205  km/h

18  Damiano Caruso  BMC04h 17' 08"+  00:03:00 =34,068  km/h

19  Stef Clement  IAM Cycling04h 17' 18"+  00:03:10 =34,046  km/h

20  Jarlinson Pantano  IAM Cycling04h 18' 00"+  00:03:52 =33,953  km/h

21  Diego Rosa  Astana Pro Team04h 18' 00"+  00:03:52 =33,953  km/h

22  Alexis Vuillermoz  AG2R La Mondiale04h 18' 00"+  00:03:52 =33,953  km/h

23  Bauke Mollema  Trek-Segafredo04h 18' 34"+  00:04:26 =33,879  km/h

24  Emanuel Buchmann  Bora-Argon 1804h 18' 50"+  00:04:42 =33,844  km/h

25  Daniel Moreno  Movistar04h 18' 57"+  00:04:49 =33,829  km/h

26  Cyril Gautier  AG2R La Mondiale04h 20' 16"+  00:06:08 =33,658  km/h

27  Rafał Majka  Tinkoff04h 20' 21"+  00:06:13 =33,647  km/h

28  Geraint Thomas  Sky Procycling04h 20' 41"+  00:06:33 =33,604  km/h

29  Haimar  Zubeldía  Trek-Segafredo04h 20' 41"+  00:06:33 =33,604  km/h

30  Jakob Fuglsang  Astana Pro Team04h 20' 41"+  00:06:33 =33,604  km/h

31  Tony Gallopin  Lotto Soudal04h 21' 57"+  00:07:49 =33,441  km/h

32  Pierre Rolland  Cannondale Pro Cycling04h 22' 02"+  00:07:54 =33,431  km/h

33  Mikaël Cherel  AG2R La Mondiale04h 22' 28"+  00:08:20 =33,376  km/h

34  Mikel Nieve  Sky Procycling04h 22' 51"+  00:08:43 =33,327  km/h

35  Daryl Impey  ORICA BikeExchange04h 23' 11"+  00:09:03 =33,285  km/h

36  Tanel Kangert  Astana Pro Team04h 23' 15"+  00:09:07 =33,276  km/h

37  Sébastien Reichenbach  FDJ04h 23' 41"+  00:09:33 =33,222  km/h

38  Amaël Moinard  BMC04h 25' 12"+  00:11:04 =33,032  km/h

39  Ilnur Zakarin  Katusha04h 25' 51"+  00:11:43 =32,951  km/h

40  Alexey Lutsenko  Astana Pro Team04h 25' 51"+  00:11:43 =32,951  km/h

41  Vincenzo Nibali  Astana Pro Team04h 25' 51"+  00:11:43 =32,951  km/h

42  Robert Kišerlovski  Tinkoff04h 25' 51"+  00:11:43 =32,951  km/h

43  Kristijan Ðurasek  Lampre-Merida04h 25' 51"+  00:11:43 =32,951  km/h

44  Eduardo Sepulveda  Fortuneo-Vital Concept04h 25' 51"+  00:11:43 =32,951  km/h

45  Peter Stetina  Trek-Segafredo04h 26' 01"+  00:11:53 =32,930  km/h

46  Steve Morabito  FDJ04h 26' 42"+  00:12:34 =32,846  km/h

47  Romain Sicard  Direct Energie04h 27' 21"+  00:13:13 =32,766  km/h

48  Fabrice Jeandesboz  Direct Energie04h 27' 21"+  00:13:13 =32,766  km/h

49  Alberto Losada  Katusha04h 27' 38"+  00:13:30 =32,731  km/h

50  Vasil Kiryienka  Sky Procycling04h 27' 44"+  00:13:36 =32,719  km/h

51  Marcus Burghardt  BMC04h 28' 37"+  00:14:29 =32,612  km/h

52  Michael Schär  BMC04h 28' 37"+  00:14:29 =32,612  km/h

53  Greg Van Avermaet  BMC04h 28' 37"+  00:14:29 =32,612  km/h

54  Jan Polanc  Lampre-Merida04h 28' 37"+  00:14:29 =32,612  km/h

55  George Bennett  Lotto NL-Jumbo04h 29' 10"+  00:15:02 =32,545  km/h

56  Thomas De Gendt  Lotto Soudal04h 30' 58"+  00:16:50 =32,329  km/h

57  Fränk Schleck  Trek-Segafredo04h 31' 38"+  00:17:30 =32,249  km/h

58  Martin Elmiger  IAM Cycling04h 31' 38"+  00:17:30 =32,249  km/h

59  Sylvain Chavanel  Direct Energie04h 31' 38"+  00:17:30 =32,249  km/h

60  Bert-Jan Lindeman  Lotto NL-Jumbo04h 32' 09"+  00:18:01 =32,188  km/h

61  Michael Matthews  ORICA BikeExchange04h 32' 40"+  00:18:32 =32,127  km/h

62  Wilco Kelderman  Lotto NL-Jumbo04h 32' 40"+  00:18:32 =32,127  km/h

63  Luis León Sánchez  Astana Pro Team04h 33' 42"+  00:19:34 =32,006  km/h

64  Arnold Jeannesson  Cofidis – Solutions Crédits04h 34' 05"+  00:19:57 =31,961  km/h

65  Dylan Van Baarle  Cannondale Pro Cycling04h 34' 05"+  00:19:57 =31,961  km/h

66  Natnael Berhane  Dimension Data04h 34' 05"+  00:19:57 =31,961  km/h

67  Ben Gastauer  AG2R La Mondiale04h 34' 05"+  00:19:57 =31,961  km/h

68  Georg Preidler  Giant-Alpecin04h 34' 05"+  00:19:57 =31,961  km/h

69  Michael Valgren  Tinkoff04h 34' 05"+  00:19:57 =31,961  km/h

70  Daniel Teklehaimanot  Dimension Data04h 34' 05"+  00:19:57 =31,961  km/h

71  Jérôme Coppel  IAM Cycling04h 34' 05"+  00:19:57 =31,961  km/h

72  Jérôme Cousin  Cofidis – Solutions Crédits04h 34' 05"+  00:19:57 =31,961  km/h

73  Nelson Oliveira  Movistar04h 35' 23"+  00:21:15 =31,810  km/h

74  Winner Anacona  Movistar04h 35' 23"+  00:21:15 =31,810  km/h

75  Rubén Plaza  ORICA BikeExchange04h 35' 23"+  00:21:15 =31,810  km/h

76  Anthony Delaplace  Fortuneo-Vital Concept04h 36' 05"+  00:21:57 =31,730  km/h

77  Antoine Duchesne  Direct Energie04h 37' 01"+  00:22:53 =31,623  km/h

78  Thomas  Voeckler  Direct Energie04h 37' 01"+  00:22:53 =31,623  km/h

79  Petr Vakoč  Etixx-Quick Step04h 37' 08"+  00:23:00 =31,609  km/h

80  Julien Vermote  Etixx-Quick Step04h 37' 11"+  00:23:03 =31,604  km/h

81  Tony Martin  Etixx-Quick Step04h 37' 11"+  00:23:03 =31,604  km/h

82  Alexis Gougeard  AG2R La Mondiale04h 37' 54"+  00:23:46 =31,522  km/h

83  Julian Alaphilippe  Etixx-Quick Step04h 37' 54"+  00:23:46 =31,522  km/h

84  Bryan Coquard  Direct Energie04h 37' 54"+  00:23:46 =31,522  km/h

85  Paolo Tiralongo  Astana Pro Team04h 37' 54"+  00:23:46 =31,522  km/h

86  Laurens Ten Dam  Giant-Alpecin04h 38' 55"+  00:24:47 =31,407  km/h

87  Simon Geschke  Giant-Alpecin04h 39' 26"+  00:25:18 =31,349  km/h

88  Imanol Erviti  Movistar04h 39' 26"+  00:25:18 =31,349  km/h

89  Bartosz Huzarski  Bora-Argon 1804h 41' 46"+  00:27:38 =31,090  km/h

90  Cesare Benedetti  Bora-Argon 1804h 41' 46"+  00:27:38 =31,090  km/h

91  Tom-Jelte Slagter  Cannondale Pro Cycling04h 41' 46"+  00:27:38 =31,090  km/h

92  Jan Bárta  Bora-Argon 1804h 41' 46"+  00:27:38 =31,090  km/h

93  Luis Angel Mate  Cofidis – Solutions Crédits04h 41' 46"+  00:27:38 =31,090  km/h

94  Reto Hollenstein  IAM Cycling04h 41' 46"+  00:27:38 =31,090  km/h

95  Pierre-Luc Périchon  Fortuneo-Vital Concept04h 41' 46"+  00:27:38 =31,090  km/h

96  Paul Voss  Bora-Argon 1804h 41' 46"+  00:27:38 =31,090  km/h

97  Jan Bakelants  AG2R La Mondiale04h 41' 46"+  00:27:38 =31,090  km/h

98  Samuel Dumoulin  AG2R La Mondiale04h 41' 46"+  00:27:38 =31,090  km/h

99  Paul Martens  Lotto NL-Jumbo04h 41' 46"+  00:27:38 =31,090  km/h

100  William  Bonnet  FDJ04h 41' 46"+  00:27:38 =31,090  km/h

101  Oliver Naesen  IAM Cycling04h 41' 46"+  00:27:38 =31,090  km/h

102  Sondre Holst Enger  IAM Cycling04h 44' 04"+  00:29:56 =30,838  km/h

103  Vegard Breen  Fortuneo-Vital Concept04h 44' 04"+  00:29:56 =30,838  km/h

104  Ian Stannard  Sky Procycling04h 44' 04"+  00:29:56 =30,838  km/h

105  Luke Rowe  Sky Procycling04h 44' 04"+  00:29:56 =30,838  km/h

106  Florian Vachon  Fortuneo-Vital Concept04h 44' 04"+  00:29:56 =30,838  km/h

107  Leigh Howard  IAM Cycling04h 45' 36"+  00:31:28 =30,672  km/h

108  Adam Hansen  Lotto Soudal04h 45' 36"+  00:31:28 =30,672  km/h

109  Sep Vanmarcke  Lotto NL-Jumbo04h 45' 36"+  00:31:28 =30,672  km/h

110  Jürgen Roelandts  Lotto Soudal04h 45' 36"+  00:31:28 =30,672  km/h

111  Fabio Sabatini  Etixx-Quick Step04h 45' 36"+  00:31:28 =30,672  km/h

112  Chris Anker Sørensen  Fortuneo-Vital Concept04h 45' 36"+  00:31:28 =30,672  km/h

113  Oscar Gatto  Tinkoff04h 45' 36"+  00:31:28 =30,672  km/h

114  Matteo Tosatto  Tinkoff04h 45' 36"+  00:31:28 =30,672  km/h

115  Timo Roosen  Lotto NL-Jumbo04h 45' 36"+  00:31:28 =30,672  km/h

116  Kristjan Koren  Cannondale Pro Cycling04h 45' 36"+  00:31:28 =30,672  km/h

117  Geoffrey Soupe  Cofidis – Solutions Crédits04h 45' 36"+  00:31:28 =30,672  km/h

118  Robert Wagner  Lotto NL-Jumbo04h 45' 36"+  00:31:28 =30,672  km/h

119  Christophe Laporte  Cofidis – Solutions Crédits04h 45' 36"+  00:31:28 =30,672  km/h

120  Iljo Keisse  Etixx-Quick Step04h 45' 36"+  00:31:28 =30,672  km/h

121  Brent Bookwalter  BMC04h 45' 36"+  00:31:28 =30,672  km/h

122  Tejay Van Garderen  BMC04h 45' 36"+  00:31:28 =30,672  km/h

123  Patrick Konrad  Bora-Argon 1804h 45' 36"+  00:31:28 =30,672  km/h

124  Gregory Rast  Trek-Segafredo04h 45' 36"+  00:31:28 =30,672  km/h

125  Michael Albasini  ORICA BikeExchange04h 45' 36"+  00:31:28 =30,672  km/h

126  Ramon Sinkeldam  Giant-Alpecin04h 45' 36"+  00:31:28 =30,672  km/h

127  Albert Timmer  Giant-Alpecin04h 45' 36"+  00:31:28 =30,672  km/h

128  Matteo Bono  Lampre-Merida04h 45' 36"+  00:31:28 =30,672  km/h

129  Mathew Hayman  ORICA BikeExchange04h 45' 36"+  00:31:28 =30,672  km/h

130  Luka Pibernik  Lampre-Merida04h 45' 36"+  00:31:28 =30,672  km/h

131  Tsgabu Grmay  Lampre-Merida04h 45' 36"+  00:31:28 =30,672  km/h

132  Lawson Craddock  Cannondale Pro Cycling04h 45' 36"+  00:31:28 =30,672  km/h

133  Marcel Kittel  Etixx-Quick Step04h 45' 36"+  00:31:28 =30,672  km/h

134  Nicolas Edet  Cofidis – Solutions Crédits04h 45' 36"+  00:31:28 =30,672  km/h

135  Jasper Stuyven  Trek-Segafredo04h 45' 36"+  00:31:28 =30,672  km/h

136  Serge Pauwels  Dimension Data04h 45' 36"+  00:31:28 =30,672  km/h

137  Alexander Kristoff  Katusha04h 45' 36"+  00:31:28 =30,672  km/h

138  Luke Durbridge  ORICA BikeExchange04h 45' 36"+  00:31:28 =30,672  km/h

139  Alex Howes  Cannondale Pro Cycling04h 45' 36"+  00:31:28 =30,672  km/h

140  Armindo Fonseca  Fortuneo-Vital Concept04h 45' 36"+  00:31:28 =30,672  km/h

141  Dylan Groenewegen  Lotto NL-Jumbo04h 45' 36"+  00:31:28 =30,672  km/h

142  Markel Irizar  Trek-Segafredo04h 45' 36"+  00:31:28 =30,672  km/h

143  Jérémy Roy  FDJ04h 45' 36"+  00:31:28 =30,672  km/h

144  Domenico Pozzovivo  AG2R La Mondiale04h 45' 36"+  00:31:28 =30,672  km/h

145  Andriy Grivko  Astana Pro Team04h 45' 36"+  00:31:28 =30,672  km/h

146  André Greipel  Lotto Soudal04h 45' 36"+  00:31:28 =30,672  km/h

147  Brice Feillu  Fortuneo-Vital Concept04h 45' 36"+  00:31:28 =30,672  km/h

148  Roy Curvers  Giant-Alpecin04h 45' 36"+  00:31:28 =30,672  km/h

149  Ángel Vicioso  Katusha04h 45' 36"+  00:31:28 =30,672  km/h

150  Sam Bennett  Bora-Argon 1804h 45' 36"+  00:31:28 =30,672  km/h

151  Andreas Schillinger  Bora-Argon 1804h 45' 36"+  00:31:28 =30,672  km/h

152  Ramūnas Navardauskas  Cannondale Pro Cycling04h 45' 36"+  00:31:28 =30,672  km/h

153  Christopher Juul Jensen  ORICA BikeExchange04h 45' 36"+  00:31:28 =30,672  km/h

154  Arthur Vichot  FDJ04h 45' 36"+  00:31:28 =30,672  km/h

155  Anthony Roux  FDJ04h 45' 36"+  00:31:28 =30,672  km/h

156  Reinardt Janse Van Rensburg  Dimension Data04h 45' 36"+  00:31:28 =30,672  km/h

157  Maarten Wynants  Lotto NL-Jumbo04h 45' 36"+  00:31:28 =30,672  km/h

158  Davide Cimolai  Lampre-Merida04h 45' 36"+  00:31:28 =30,672  km/h

159  Marco Haller  Katusha04h 45' 36"+  00:31:28 =30,672  km/h

160  Yohann Gène  Direct Energie04h 45' 36"+  00:31:28 =30,672  km/h

161  Jacopo Guarnieri  Katusha04h 45' 36"+  00:31:28 =30,672  km/h

162  Maciej Bodnar  Tinkoff04h 45' 36"+  00:31:28 =30,672  km/h

163  Adrien Petit  Direct Energie04h 45' 36"+  00:31:28 =30,672  km/h

164  Edvald Boasson Hagen  Dimension Data04h 45' 36"+  00:31:28 =30,672  km/h

165  Gregory Henderson  Lotto Soudal04h 45' 36"+  00:31:28 =30,672  km/h

166  Yukiya  Arashiro  Lampre-Merida04h 45' 36"+  00:31:28 =30,672  km/h

167  Stephen Cummings  Dimension Data04h 45' 36"+  00:31:28 =30,672  km/h

168  Lars Bak  Lotto Soudal04h 45' 36"+  00:31:28 =30,672  km/h

169  Marcel Sieberg  Lotto Soudal04h 45' 52"+  00:31:44 =30,644  km/h

170  Bernhard Eisel  Dimension Data04h 45' 52"+  00:31:44 =30,644  km/h

171  Cyril Lemoine  Cofidis – Solutions Crédits04h 45' 52"+  00:31:44 =30,644  km/h

172  Peter Sagan  Tinkoff04h 45' 52"+  00:31:44 =30,644  km/h

173  John Degenkolb  Giant-Alpecin04h 45' 52"+  00:31:44 =30,644  km/h

174  Maximiliano Richeze  Etixx-Quick Step04h 45' 55"+  00:31:47 =30,638  km/h

175  Daniel McLay  Fortuneo-Vital Concept04h 49' 47"+  00:35:39 =30,229  km/h


Withdrawls: 2
 RiderTeamReason
114   Tom Dumoulin Giant-AlpecinDid not finish
191   Daniel Navarro Cofidis – Solutions CréditsDid not finish
Todays birthdays.

1888 • Giuseppe Contesini
1911 • Edmond Pages
1935 • Eddy Pauwels
1940 • Julien Haelterman
1958 • Luc Colijn
1962 • Jean-François Bernard
1984 • Yann Huguet
1993 • Owain Doull

 

Optimized for Chrome - Edge
and Opera browsers.